Retour au catalogue

DMSP 5D-2 F11 DEB

ActifSSO
NORAD 28315·DEBRIS·🇺🇸 United States

Lancé Nov 28, 1991 depuis Vandenberg Space Force Base

Loading…

Prochains Passages (prochaines 24 heures)

TLE

FraisSource: Space-Track

Époque: Sep 14, 2026, 05:26 UTC

1 28315U 91082AC  26257.22699307  .00002695  00000-0  11499-2 0  9997
2 28315  98.7920 357.6008 0098335 327.9600  61.0859 14.23336857142323

Suivez DMSP 5D-2 F11 DEB en temps réel avec AllMySat

Download on the App Store